Regional Weather Roundup
Issued by NWS Jackson, KY

Home | Current Version | Previous Version | Graphics & Text | Print | Product List | Glossary On
Versions: 1 2 3 4 5 6 7 8 9 10 11 12 13 14 15 16 17 18 19 20 21 22 23 24 25 26 27 28 29 30 31 32 33 34 35 36 37 38 39 40 41 42 43 44 45 46 47 48 49 50
000
ASUS43 KJKL 301410
RWRJKL

EAST KENTUCKY HOURLY WEATHER ROUNDUP
NATIONAL WEATHER SERVICE JACKSON KY
1000 AM EDT TUE SEP 30 2014

NOTE: "FAIR" INDICATES FEW OR NO CLOUDS BELOW 12,000 FEET WITH
NO SIGNIFICANT WEATHER AND/OR OBSTRUCTIONS TO VISIBILITY.

* THESE REPORTS ARE NOT UNDER NWS QUALITY CONTROL AND MAY NOT
  REPORT WEATHER SUCH AS PRECIPITATION AND FOG.

KYZ079-080-083-085-087-088-110-112-115-119-120-301500
...EASTERN KENTUCKY...

CITY           SKY/WX    TMP DP  RH WIND       PRES   REMARKS
JACKSON        SUNNY     64  60  87 CALM      29.98S
LONDON         FOG       61  59  93 CALM      30.00S VSB 1
SOMERSET*      FOG       59  59 100 CALM      30.00S VSB<1/4
MONTICELLO*    SUNNY     64  62  93 CALM      30.00S FOG
WILLIAMSBURG*  CLOUDY    59  59 100 CALM      30.00S
MIDDLESBORO*   FOG       59  59 100 CALM      30.01S VSB 3/4
HARLAN APT*    CLOUDY    59  57  94 CALM      30.02R VSB<1/4
BLACK MTN*       N/A     63  57  82 CALM        N/A
PIKEVILLE APT* FOG       61  61 100 CALM      29.99R VSB 0
BIG SANDY*     MOSUNNY   62  61  96 SW3       29.98R
MOREHEAD APT*  SUNNY     64  57  77 CALM      29.99R
$$

KYZ035-036-041-042-044-050-067-078-099-301500
...CENTRAL KENTUCKY...

CITY           SKY/WX    TMP DP  RH WIND       PRES   REMARKS
MT STERLING*   SUNNY     64  59  82 CALM      29.99R
FLEMING/MASON* SUNNY     64  57  77 SW3       29.98R
DANVILLE*      SUNNY     64  55  72 CALM      29.99S
RICHMOND*      SUNNY     68  54  60 CALM      29.97S
LEXINGTON      SUNNY     68  56  65 W3        29.98R
FRANKFORT      SUNNY     65  56  72 CALM      29.96S
$$

KYZ091>093-OHZ055-061-077-WVZ005-015-034-035-042-301500
...SOUTHERN OHIO/WEST VIRGINIA...

CITY           SKY/WX    TMP DP  RH WIND       PRES   REMARKS
COVINGTON      MOSUNNY   68  53  58 W5        29.95S
COLUMBUS       CLOUDY    62  52  69 CALM      29.93S
DAYTON         CLOUDY    61  58  90 N12       29.96S FOG
WILMINGTON     SUNNY     67  51  56 W3        29.94S
HUNTINGTON     SUNNY     61  60  97 S6        29.94F
CHARLESTON     MOSUNNY   63  61  93 CALM      29.94F
PINEVILLE*     FOG       60  60 100 MISG      30.04F VSB 1/4
BECKLEY        SUNNY     64  58  80 SW7       30.01S
BLUEFIELD      SUNNY     65  58  78 W7        30.03S
$$

VAZ002-007-008-TNZ017-027-036-066-071-301500
...SOUTHWEST VIRGINIA/EAST TENNESSEE...

CITY           SKY/WX    TMP DP  RH WIND       PRES   REMARKS
WISE*          SUNNY     64  63  94 SW5       30.04S
JONESVILLE*    FOG       57  57 100 CALM      30.03S VSB<1/4
ABINGDON*      SUNNY     65  61  89 CALM      30.02S
BRISTOL        FOG       58  57  97 CALM      30.01S VSB 1/16
KNOXVILLE      PTSUNNY   67  62  84 SW5       29.99S
OAK RIDGE      CLOUDY    64  62  93 S3        30.01S
CROSSVILLE     SUNNY     70  62  76 CALM      30.02S
NASHVILLE      SUNNY     70  62  76 CALM      29.97S
$$

...KEY TO REMARKS...
VSB - VISIBILITY IN MILES
WCI - WIND CHILL INDEX
HX  - HEAT INDEX

$$



USA.gov is the U.S. government's official web portal to all federal, state and local government web resources and services.